Location: Unspecified
(0.0000°N, 0.0000°E)
Time: 18:38:13
(UTC+00:00)

Hubble Space Telescope - Pass Details

Date: 16 January 2026
Orbit: 479 x 481 km, 28.5° (Epoch: 19 January)

Event Time Altitude Azimuth Distance (km) Brightness Sun altitude
Rises 18:58:09 0° 250° (WSW) 2,519 6.5 -11.3°
Reaches altitude 10° 19:00:25 10° 257° (WSW) 1,640 4.7 -11.8°
Maximum altitude 19:04:02 44° 330° (NNW) 666 1.3 -12.6°
Enters shadow 19:06:33 18° 36° (NE) 1,238 2.1 -13.2°
